Regional Weather Roundup
Issued by NWS Portland, ME

Current Version | Previous Version | Text Only | Print | Product List | Glossary Off
Versions: 1 2 3 4 5 6 7 8 9 10 11 12 13 14 15 16 17 18 19 20 21 22 23 24 25 26 27 28 29 30 31 32 33 34 35 36 37 38 39 40 41 42 43 44 45 46 47 48 49 50
056 ASUS41 KGYX 210510 RWRGYX WEATHER ROUNDUP FOR MAINE AND NEW HAMPSHIRE NATIONAL WEATHER SERVICE GRAY ME 100 AM EDT THU JUN 21 2018 MEZ002-005-006-010-012-015-018-020-021-024-026-027-029-210600- MAINE CITY SKY/WX TMP DP RH WIND PRES REMARKS PORTLAND FAIR 63 54 72 W6 29.72F SANFORD FAIR 58 53 84 W3 29.74F BAR HARBOR FAIR 55 53 93 CALM 29.70R WISCASSET FAIR 55 54 96 CALM 29.72S ROCKLAND FAIR 53 52 96 CALM 29.70S FRYEBURG FAIR 64 51 62 W7 29.73F LEWISTONAUBURN FAIR 57 53 86 CALM 29.72S AUGUSTA FAIR 63 53 70 SW3 29.71S WATERVILLE FAIR 60 55 83 W5 29.68S BANGOR MOCLDY 63 57 81 CALM 29.69S GREENVILLE N/A 63 53 70 NW7G18 29.70R MILLINOCKET CLOUDY 62 58 86 NW5 29.69S HOULTON FAIR 60 57 89 W5 29.66R PRESQUE ISLE FAIR 58 44 60 NW9 29.68R FRENCHVILLE FAIR 55 36 48 N14G24 29.68R CARIBOU FAIR 56 41 57 N9 29.67R $$ NHZ002-005-008-009-011-012-014-210600- NEW HAMPSHIRE CITY SKY/WX TMP DP RH WIND PRES REMARKS PORTSMOUTH PTCLDY 64 55 71 W3 29.72F ROCHESTER FAIR 66 51 58 NW7 29.73F NASHUA FAIR 60 55 83 CALM 29.76F MANCHESTER FAIR 65 54 67 S5 29.74F CONCORD FAIR 59 53 80 CALM 29.76S PLYMOUTH N/A 56 53 89 CALM 29.76S BERLIN MOCLDY 58 54 86 CALM 29.76S WHITEFIELD MOCLDY 57 54 89 NW3 29.77S JAFFREY FAIR 56 54 93 S3 29.80F KEENE FAIR 53 52 96 CALM 29.79F LEBANON FAIR 58 51 78 CALM 29.77S MT WASHINGTON FOG 45 45 100 NW53G59 N/A VSB 1/16 $$ VTZ005-007-008-210600- VERMONT CITY SKY/WX TMP DP RH WIND PRES REMARKS ST JOHNSBURY N/A 60 55 83 MISG 29.75S MONTPELIER FAIR 55 53 93 S3 29.82S BURLINGTON CLOUDY 70 54 56 N6 29.78R $$ MAZ007-012-024-CTZ003-RIZ002-NYZ038-NYZ072-210600- SOUTHERN NEW ENGLAND AND NY CITY SKY/WX TMP DP RH WIND PRES REMARKS BOSTON FAIR 70 58 65 SW7 29.75F WORCESTER FAIR 62 56 80 W8 29.80S NANTUCKET CLOUDY 62 60 93 SW7 29.80F PROVIDENCE MOCLDY 70 64 81 W7 29.78F HARTFORD FAIR 63 60 90 CALM 29.78S ALBANY FAIR 60 53 77 CALM 29.80S NEW YORK CITY LGT RAIN 73 68 84 E5 29.76F $$ ANZ081-ANZ082-ANZ150-NHZ014-MEZ023>029-210600- COASTAL MARINE OBSERVATIONS STATION/POSITION TIME TEMP WIND PRES WAVE AIR SEA DIR/SP/G HT/PER (UTC) (F) (DEG/KT/KT) (MB) (FT/S) MOUNT DESERT ROC 0500 55 220/ 17/ 18 1005.6F MATINICUS ROCK 0400 58 230/ 20/ 21 1005.3F ISLE OF SHOALS 0400 68 250/ 13/ 13 1006.7S JEFFREYS LEDGE 0436 57 N/A 2/ 4 $$ .............KEY.............. WCI - WIND CHILL TC - TEMPERATURE IN CELSIUS VSB - VISIBILITY IN MILES HX - HEAT INDEX FAIR- INDICATES FEW OR NO CLOUDS BELOW 12,000 FT, WITH NO SIGNIFICANT WEATHER AND/OR OBSTRUCTIONS TO VISIBILITY.

USA.gov is the U.S. government's official web portal to all federal, state and local government web resources and services.